20040718,000005,440661,32.408833,-119.959333,16.704,33.439,NaN,NaN
20040718,000035,440691,32.408833,-119.959500,16.716,33.437,NaN,NaN
20040718,000105,440721,32.408667,-119.959667,16.763,33.434,NaN,NaN
20040718,000135,440751,32.408667,-119.959833,16.772,33.435,NaN,NaN
20040718,000205,440781,32.408667,-119.960000,16.770,33.432,NaN,NaN
20040718,000235,440811,32.408667,-119.960167,16.752,33.429,NaN,NaN
20040718,000305,440841,32.408500,-119.960333,16.736,33.427,NaN,NaN
20040718,000335,440871,32.408500,-119.960500,16.717,33.422,NaN,NaN
20040718,000405,440901,32.408333,-119.960667,16.697,33.416,NaN,NaN
20040718,000435,440931,32.408333,-119.960833,16.702,33.416,NaN,NaN
20040718,000505,440961,32.408333,-119.961000,16.748,33.415,NaN,NaN
20040718,000535,440991,32.408167,-119.961167,16.772,33.416,NaN,NaN
20040718,000605,441021,32.408167,-119.961333,16.775,33.417,NaN,NaN
20040718,000635,441051,32.408000,-119.961500,16.765,33.414,NaN,NaN
20040718,000705,441081,32.407833,-119.961667,16.764,33.413,NaN,NaN
20040718,000735,441111,32.407833,-119.961833,16.755,33.412,NaN,NaN
20040718,000805,441141,32.407833,-119.962000,16.760,33.411,NaN,NaN
20040718,000835,441171,32.407667,-119.962167,16.760,33.410,NaN,NaN
20040718,000905,441201,32.407667,-119.962167,16.743,33.408,NaN,NaN
20040718,000935,441231,32.407500,-119.962333,16.728,33.406,NaN,NaN
20040718,001005,441261,32.407500,-119.962500,16.729,33.406,NaN,NaN
20040718,001035,441291,32.407500,-119.962667,16.726,33.405,NaN,NaN
20040718,001105,441321,32.407500,-119.962833,16.734,33.406,NaN,NaN
20040718,001135,441351,32.407500,-119.963000,16.742,33.407,NaN,NaN
20040718,001205,441381,32.407333,-119.963167,16.768,33.410,NaN,NaN
20040718,001235,441411,32.407333,-119.963500,16.780,33.412,NaN,NaN
20040718,001305,441441,32.407333,-119.963667,16.797,33.411,NaN,NaN
20040718,001335,441471,32.407333,-119.963833,16.796,33.412,NaN,NaN
20040718,001405,441501,32.407333,-119.964167,16.813,33.412,NaN,NaN
20040718,001435,441531,32.407333,-119.964500,16.802,33.412,NaN,NaN
20040718,001505,441561,32.407333,-119.964667,16.794,33.407,NaN,NaN
20040718,001535,441591,32.407167,-119.965000,16.754,33.405,NaN,NaN
20040718,001605,441621,32.407167,-119.965167,16.631,33.389,NaN,NaN
20040718,001635,441651,32.407167,-119.965500,16.557,33.377,NaN,NaN
20040718,001705,441681,32.407167,-119.965667,16.515,33.368,NaN,NaN
20040718,001735,441711,32.407167,-119.965833,16.490,33.361,NaN,NaN
20040718,001805,441741,32.407167,-119.966167,16.481,33.358,NaN,NaN
20040718,001835,441771,32.407000,-119.966333,16.472,33.354,NaN,NaN
20040718,001905,441801,32.407000,-119.966667,16.430,33.350,NaN,NaN
20040718,001935,441831,32.407000,-119.966833,16.416,33.342,NaN,NaN
20040718,002005,441861,32.407000,-119.967000,16.379,33.338,NaN,NaN
20040718,002035,441891,32.406833,-119.967333,16.340,33.331,NaN,NaN
20040718,002105,441921,32.406833,-119.967500,16.326,33.325,NaN,NaN
20040718,002135,441951,32.406833,-119.967667,16.305,33.322,NaN,NaN
20040718,002205,441981,32.406833,-119.968000,16.288,33.319,NaN,NaN
20040718,002235,442011,32.406833,-119.968167,16.272,33.316,NaN,NaN
20040718,002305,442041,32.406667,-119.968333,16.266,33.313,NaN,NaN
20040718,002335,442071,32.406667,-119.968667,16.273,33.315,NaN,NaN
20040718,002405,442101,32.406667,-119.968833,16.245,33.312,NaN,NaN
20040718,002435,442131,32.406500,-119.969000,16.246,33.310,NaN,NaN
20040718,002505,442161,32.406500,-119.969333,16.242,33.310,NaN,NaN
20040718,002535,442191,32.406500,-119.969500,16.288,33.310,NaN,NaN
20040718,002605,442221,32.406333,-119.969667,16.370,33.320,NaN,NaN
20040718,002635,442251,32.406333,-119.970000,16.399,33.325,NaN,NaN
20040718,002705,442281,32.406333,-119.970167,16.357,33.321,NaN,NaN
20040718,002735,442311,32.406333,-119.970500,16.412,33.322,NaN,NaN
20040718,002805,442341,32.406167,-119.970667,16.410,33.324,NaN,NaN
20040718,002835,442371,32.406167,-119.971000,16.426,33.323,NaN,NaN
20040718,002905,442401,32.406167,-119.971167,16.439,33.325,NaN,NaN
20040718,002935,442431,32.406000,-119.971500,16.468,33.329,NaN,NaN
20040718,003005,442461,32.406000,-119.971667,16.446,33.328,NaN,NaN
20040718,003035,442491,32.406000,-119.972000,16.468,33.326,NaN,NaN
20040718,003105,442521,32.405833,-119.972167,16.481,33.327,NaN,NaN
20040718,003135,442551,32.405833,-119.972333,16.461,33.328,NaN,NaN
20040718,003205,442581,32.405667,-119.972500,16.456,33.326,NaN,NaN
20040718,003235,442611,32.405667,-119.972667,16.444,33.324,NaN,NaN
20040718,003305,442641,32.405667,-119.973000,16.471,33.327,NaN,NaN
20040718,003335,442671,32.405667,-119.973167,16.444,33.326,NaN,NaN
20040718,003405,442701,32.405667,-119.973333,16.433,33.323,NaN,NaN
20040718,003435,442731,32.405667,-119.973667,16.428,33.325,NaN,NaN
20040718,003505,442761,32.405667,-119.974000,16.386,33.320,NaN,NaN
20040718,003535,442791,32.405667,-119.974167,16.394,33.318,NaN,NaN
20040718,003605,442821,32.405667,-119.974500,16.399,33.317,NaN,NaN
20040718,003635,442851,32.405667,-119.974833,16.423,33.317,NaN,NaN
20040718,003705,442881,32.405667,-119.975167,16.393,33.277,NaN,NaN
20040718,003735,442911,32.406000,-119.975333,16.386,33.314,NaN,NaN
20040718,003805,442941,32.406167,-119.975333,16.398,33.316,NaN,NaN
20040718,003835,442971,32.406500,-119.975167,16.422,33.320,NaN,NaN
20040718,003905,443001,32.406667,-119.974667,16.449,33.326,NaN,NaN
20040718,003935,443031,32.406833,-119.974167,16.477,33.331,NaN,NaN
20040718,004005,443061,32.407167,-119.973500,16.502,33.336,NaN,NaN
20040718,004035,443091,32.407333,-119.973000,16.507,33.340,NaN,NaN
20040718,004105,443121,32.407500,-119.972333,16.543,33.344,NaN,NaN
20040718,004135,443151,32.407833,-119.971833,16.655,33.368,NaN,NaN
20040718,004205,443181,32.408167,-119.971000,16.660,33.374,NaN,NaN
20040718,004235,443211,32.408500,-119.970167,16.687,33.381,NaN,NaN
20040718,004305,443241,32.409000,-119.969167,16.724,33.392,NaN,NaN
20040718,004335,443271,32.409500,-119.968000,16.745,33.399,NaN,NaN
20040718,004405,443301,32.410000,-119.966667,16.730,33.398,NaN,NaN
20040718,004435,443331,32.410667,-119.965333,16.702,33.396,NaN,NaN
20040718,004505,443361,32.411333,-119.964333,16.736,33.393,NaN,NaN
20040718,004535,443391,32.412167,-119.963333,16.730,33.397,NaN,NaN
20040718,004605,443421,32.413000,-119.962167,16.705,33.399,NaN,NaN
20040718,004635,443451,32.413833,-119.960833,16.689,33.399,NaN,NaN
20040718,004705,443481,32.414500,-119.959667,16.667,33.406,NaN,NaN
20040718,004735,443511,32.415333,-119.958333,16.660,33.409,NaN,NaN
20040718,004805,443541,32.416000,-119.957000,16.648,33.412,NaN,NaN
20040718,004835,443571,32.416667,-119.955500,16.634,33.414,NaN,NaN
20040718,004905,443601,32.417333,-119.954167,16.629,33.408,NaN,NaN
20040718,004935,443631,32.418000,-119.952833,16.612,33.404,NaN,NaN
20040718,005005,443661,32.418667,-119.951333,16.600,33.400,NaN,NaN
20040718,005035,443691,32.419333,-119.950000,16.598,33.399,NaN,NaN
20040718,005105,443721,32.420000,-119.948500,16.602,33.400,NaN,NaN
20040718,005135,443751,32.420500,-119.947167,16.595,33.405,NaN,NaN
20040718,005205,443781,32.421167,-119.945667,16.596,33.408,NaN,NaN
20040718,005235,443811,32.421833,-119.944333,16.625,33.409,NaN,NaN
20040718,005305,443841,32.422500,-119.942833,16.630,33.407,NaN,NaN
20040718,005335,443871,32.423000,-119.941500,16.625,33.406,NaN,NaN
20040718,005405,443901,32.423667,-119.940167,16.603,33.407,NaN,NaN
20040718,005435,443931,32.424333,-119.938833,16.585,33.408,NaN,NaN
20040718,005505,443961,32.425000,-119.937500,16.582,33.407,NaN,NaN
20040718,005535,443991,32.425500,-119.936000,16.592,33.408,NaN,NaN
20040718,005605,444021,32.426167,-119.934667,16.598,33.410,NaN,NaN
20040718,005635,444051,32.426833,-119.933167,16.604,33.412,NaN,NaN
20040718,005705,444081,32.427333,-119.931833,16.614,33.414,NaN,NaN
20040718,005735,444111,32.428000,-119.930500,16.614,33.418,NaN,NaN
20040718,005805,444141,32.428667,-119.929000,16.626,33.418,NaN,NaN
20040718,005835,444171,32.429333,-119.927667,16.636,33.421,NaN,NaN
20040718,005905,444201,32.430000,-119.926333,16.650,33.423,NaN,NaN
20040718,005935,444231,32.430667,-119.924833,16.656,33.426,NaN,NaN
20040718,010005,444261,32.431333,-119.923500,16.695,33.425,NaN,NaN
20040718,010035,444291,32.431833,-119.922000,16.731,33.427,NaN,NaN
20040718,010105,444321,32.432500,-119.920667,16.742,33.428,NaN,NaN
20040718,010135,444351,32.433167,-119.919333,16.742,33.429,NaN,NaN
20040718,010205,444381,32.433833,-119.917833,16.713,33.429,NaN,NaN
20040718,010235,444411,32.434500,-119.916500,16.687,33.428,NaN,NaN
20040718,010305,444441,32.435167,-119.915167,16.687,33.425,NaN,NaN
20040718,010335,444471,32.435667,-119.913667,16.692,33.424,NaN,NaN
20040718,010405,444501,32.436333,-119.912167,16.680,33.430,NaN,NaN
20040718,010435,444531,32.437000,-119.910833,16.671,33.435,NaN,NaN
20040718,010505,444561,32.437667,-119.909500,16.683,33.434,NaN,NaN
20040718,010535,444591,32.438333,-119.908167,16.702,33.429,NaN,NaN
20040718,010605,444621,32.439000,-119.906667,16.712,33.428,NaN,NaN
20040718,010635,444651,32.439667,-119.905333,16.713,33.428,NaN,NaN
20040718,010705,444681,32.440333,-119.903833,16.712,33.428,NaN,NaN
20040718,010735,444711,32.440833,-119.902500,16.698,33.430,NaN,NaN
20040718,010805,444741,32.441500,-119.901000,16.677,33.433,NaN,NaN
20040718,010835,444771,32.442167,-119.899667,16.679,33.433,NaN,NaN
20040718,010905,444801,32.442833,-119.898333,16.686,33.435,NaN,NaN
20040718,010935,444831,32.443500,-119.897000,16.702,33.435,NaN,NaN
20040718,011005,444861,32.444333,-119.895667,16.722,33.435,NaN,NaN
20040718,011035,444891,32.445000,-119.894333,16.719,33.431,NaN,NaN
20040718,011105,444921,32.445667,-119.893000,16.713,33.427,NaN,NaN
20040718,011135,444951,32.446333,-119.891667,16.711,33.427,NaN,NaN
20040718,011205,444981,32.447000,-119.890333,16.713,33.429,NaN,NaN
20040718,011235,445011,32.447833,-119.889000,16.728,33.433,NaN,NaN
20040718,011305,445041,32.448500,-119.887667,16.741,33.438,NaN,NaN
20040718,011335,445071,32.449167,-119.886333,16.750,33.443,NaN,NaN
20040718,011405,445101,32.449833,-119.885000,16.763,33.447,NaN,NaN
20040718,011435,445131,32.450500,-119.883667,16.763,33.446,NaN,NaN
20040718,011505,445161,32.451167,-119.882333,16.755,33.447,NaN,NaN
20040718,011535,445191,32.451833,-119.881167,16.736,33.447,NaN,NaN
20040718,011605,445221,32.452667,-119.879667,16.725,33.442,NaN,NaN
20040718,011635,445251,32.453333,-119.878500,16.744,33.442,NaN,NaN
20040718,011705,445281,32.454000,-119.877167,16.797,33.446,NaN,NaN
20040718,011735,445311,32.454667,-119.875833,16.803,33.451,NaN,NaN
20040718,011805,445341,32.455333,-119.874500,16.804,33.457,NaN,NaN
20040718,011835,445371,32.456000,-119.873167,16.828,33.460,NaN,NaN
20040718,011905,445401,32.456833,-119.871833,16.823,33.469,NaN,NaN
20040718,011935,445431,32.457500,-119.870500,16.803,33.475,NaN,NaN
20040718,012005,445461,32.458167,-119.869167,16.802,33.477,NaN,NaN
20040718,012035,445491,32.458833,-119.867833,16.815,33.480,NaN,NaN
20040718,012105,445521,32.459500,-119.866500,16.827,33.482,NaN,NaN
20040718,012135,445551,32.460167,-119.865167,16.830,33.484,NaN,NaN
20040718,012205,445581,32.460833,-119.863833,16.837,33.484,NaN,NaN
20040718,012235,445611,32.461500,-119.862500,16.860,33.484,NaN,NaN
20040718,012305,445641,32.462167,-119.861167,16.889,33.485,NaN,NaN
20040718,012335,445671,32.462833,-119.859833,16.912,33.488,NaN,NaN
20040718,012405,445701,32.463500,-119.858500,16.907,33.489,NaN,NaN
20040718,012435,445731,32.464333,-119.857167,16.897,33.488,NaN,NaN
20040718,012505,445761,32.465000,-119.856000,16.938,33.488,NaN,NaN
20040718,012535,445791,32.465667,-119.854667,16.938,33.489,NaN,NaN
20040718,012605,445821,32.466333,-119.853333,16.930,33.490,NaN,NaN
20040718,012635,445851,32.467000,-119.852000,16.948,33.488,NaN,NaN
20040718,012705,445881,32.467667,-119.850667,16.968,33.487,NaN,NaN
20040718,012735,445911,32.468333,-119.849333,16.960,33.489,NaN,NaN
20040718,012805,445941,32.469000,-119.848000,16.932,33.489,NaN,NaN
20040718,012835,445971,32.469667,-119.846667,16.934,33.488,NaN,NaN
20040718,012905,446001,32.470333,-119.845500,16.921,33.489,NaN,NaN
20040718,012935,446031,32.471000,-119.844167,16.927,33.488,NaN,NaN
20040718,013005,446061,32.471667,-119.842833,16.944,33.489,NaN,NaN
20040718,013035,446091,32.472500,-119.841500,16.946,33.490,NaN,NaN
20040718,013105,446121,32.473167,-119.840333,16.969,33.489,NaN,NaN
20040718,013135,446151,32.473833,-119.839000,16.999,33.490,NaN,NaN
20040718,013205,446181,32.474500,-119.837667,17.019,33.493,NaN,NaN
20040718,013235,446211,32.475333,-119.836333,17.036,33.493,NaN,NaN
20040718,013305,446241,32.476000,-119.835167,17.043,33.495,NaN,NaN
20040718,013335,446271,32.476667,-119.833833,17.018,33.496,NaN,NaN
20040718,013405,446301,32.477333,-119.832500,16.967,33.498,NaN,NaN
20040718,013435,446331,32.478167,-119.831333,16.962,33.495,NaN,NaN
20040718,013505,446361,32.478833,-119.830000,16.966,33.496,NaN,NaN
20040718,013535,446391,32.479500,-119.828667,16.960,33.497,NaN,NaN
20040718,013605,446421,32.480333,-119.827500,16.922,33.498,NaN,NaN
20040718,013635,446451,32.481000,-119.826167,16.902,33.497,NaN,NaN
20040718,013705,446481,32.481833,-119.824833,16.910,33.496,NaN,NaN
20040718,013735,446511,32.482500,-119.823500,16.943,33.495,NaN,NaN
20040718,013805,446541,32.483167,-119.822167,16.974,33.496,NaN,NaN
20040718,013835,446571,32.483833,-119.820833,16.975,33.498,NaN,NaN
20040718,013905,446601,32.484500,-119.819500,16.967,33.499,NaN,NaN
20040718,013935,446631,32.485333,-119.818333,16.942,33.500,NaN,NaN
20040718,014005,446661,32.486000,-119.817000,16.930,33.498,NaN,NaN
20040718,014035,446691,32.486833,-119.815667,16.936,33.497,NaN,NaN
20040718,014105,446721,32.487500,-119.814333,16.948,33.497,NaN,NaN
20040718,014135,446751,32.488167,-119.813000,16.934,33.500,NaN,NaN
20040718,014205,446781,32.489000,-119.811833,16.881,33.500,NaN,NaN
20040718,014235,446811,32.489667,-119.810333,16.839,33.499,NaN,NaN
20040718,014305,446841,32.490333,-119.809000,16.837,33.499,NaN,NaN
20040718,014335,446871,32.491000,-119.807667,16.839,33.498,NaN,NaN
20040718,014405,446901,32.491833,-119.806333,16.839,33.497,NaN,NaN
20040718,014435,446931,32.492500,-119.805000,16.844,33.497,NaN,NaN
20040718,014505,446961,32.493167,-119.803667,16.840,33.498,NaN,NaN
20040718,014535,446991,32.494000,-119.802333,16.827,33.499,NaN,NaN
20040718,014605,447021,32.494667,-119.801000,16.828,33.498,NaN,NaN
20040718,014635,447051,32.495333,-119.799667,16.836,33.498,NaN,NaN
20040718,014705,447081,32.496000,-119.798333,16.853,33.498,NaN,NaN
20040718,014735,447111,32.496833,-119.797000,16.877,33.498,NaN,NaN
20040718,014805,447141,32.497500,-119.795667,16.898,33.498,NaN,NaN
20040718,014835,447171,32.498167,-119.794333,16.917,33.498,NaN,NaN
20040718,014905,447201,32.498833,-119.793000,16.933,33.498,NaN,NaN
20040718,014935,447231,32.499500,-119.791667,16.946,33.498,NaN,NaN
20040718,015005,447261,32.500333,-119.790333,16.954,33.499,NaN,NaN
20040718,015035,447291,32.501000,-119.788833,16.956,33.499,NaN,NaN
20040718,015105,447321,32.501667,-119.787500,16.951,33.500,NaN,NaN
20040718,015135,447351,32.502500,-119.786167,16.941,33.500,NaN,NaN
20040718,015205,447381,32.503167,-119.784833,16.951,33.499,NaN,NaN
20040718,015235,447411,32.503833,-119.783500,16.952,33.500,NaN,NaN
20040718,015305,447441,32.504500,-119.782000,16.946,33.500,NaN,NaN
20040718,015335,447471,32.505333,-119.780667,16.942,33.501,NaN,NaN
20040718,015405,447501,32.506000,-119.779333,16.953,33.500,NaN,NaN
20040718,015435,447531,32.506667,-119.778000,17.025,33.497,NaN,NaN
20040718,015505,447561,32.507500,-119.776667,17.045,33.502,NaN,NaN
20040718,015535,447591,32.508167,-119.775167,17.068,33.501,NaN,NaN
20040718,015605,447621,32.508833,-119.773833,17.081,33.503,NaN,NaN
20040718,015635,447651,32.509667,-119.772500,17.066,33.506,NaN,NaN
20040718,015705,447681,32.510333,-119.771167,17.047,33.506,NaN,NaN
20040718,015735,447711,32.511000,-119.769667,17.037,33.506,NaN,NaN
20040718,015805,447741,32.511833,-119.768333,17.022,33.507,NaN,NaN
20040718,015835,447771,32.512500,-119.767000,17.002,33.506,NaN,NaN
20040718,015905,447801,32.513167,-119.765500,16.985,33.506,NaN,NaN
20040718,015935,447831,32.514000,-119.764167,16.986,33.506,NaN,NaN
20040718,020005,447861,32.514667,-119.762833,16.997,33.506,NaN,NaN
20040718,020035,447891,32.515500,-119.761333,16.993,33.507,NaN,NaN
20040718,020105,447921,32.516167,-119.760000,17.004,33.506,NaN,NaN
20040718,020135,447951,32.517000,-119.758667,17.013,33.507,NaN,NaN
20040718,020205,447981,32.517667,-119.757167,17.005,33.508,NaN,NaN
20040718,020235,448011,32.518333,-119.755833,17.001,33.508,NaN,NaN
20040718,020305,448041,32.519000,-119.754500,17.014,33.508,NaN,NaN
20040718,020335,448071,32.519833,-119.753000,17.015,33.508,NaN,NaN
20040718,020405,448101,32.520500,-119.751667,17.000,33.509,NaN,NaN
20040718,020435,448131,32.521167,-119.750333,16.995,33.508,NaN,NaN
20040718,020505,448161,32.522000,-119.748833,17.006,33.507,NaN,NaN
20040718,020535,448191,32.522667,-119.747500,17.024,33.507,NaN,NaN
20040718,020605,448221,32.523333,-119.746167,17.027,33.508,NaN,NaN
20040718,020635,448251,32.524000,-119.744667,17.030,33.508,NaN,NaN
20040718,020705,448281,32.524833,-119.743167,17.032,33.509,NaN,NaN
20040718,020735,448311,32.525500,-119.741833,17.038,33.509,NaN,NaN
20040718,020805,448341,32.526333,-119.740500,17.039,33.508,NaN,NaN
20040718,020835,448371,32.527000,-119.739000,17.055,33.509,NaN,NaN
20040718,020905,448401,32.527667,-119.737667,17.082,33.508,NaN,NaN
20040718,020935,448431,32.528333,-119.736167,17.098,33.508,NaN,NaN
20040718,021005,448461,32.529000,-119.734667,17.098,33.510,NaN,NaN
20040718,021035,448491,32.529833,-119.733333,17.086,33.509,NaN,NaN
20040718,021105,448521,32.530500,-119.731833,17.068,33.511,NaN,NaN
20040718,021135,448551,32.531167,-119.730500,17.072,33.510,NaN,NaN
20040718,021205,448581,32.531833,-119.729000,17.077,33.510,NaN,NaN
20040718,021235,448611,32.532500,-119.727500,17.095,33.510,NaN,NaN
20040718,021305,448641,32.533167,-119.726167,17.122,33.509,NaN,NaN
20040718,021335,448671,32.533833,-119.724667,17.157,33.510,NaN,NaN
20040718,021405,448701,32.534500,-119.723167,17.157,33.513,NaN,NaN
20040718,021435,448731,32.535167,-119.721833,17.132,33.512,NaN,NaN
20040718,021505,448761,32.535833,-119.720333,17.136,33.512,NaN,NaN
20040718,021535,448791,32.536500,-119.719000,17.126,33.514,NaN,NaN
20040718,021605,448821,32.537333,-119.717500,17.106,33.515,NaN,NaN
20040718,021635,448851,32.537833,-119.716167,17.082,33.513,NaN,NaN
20040718,021705,448881,32.538500,-119.714667,17.076,33.512,NaN,NaN
20040718,021735,448911,32.539333,-119.713167,17.085,33.512,NaN,NaN
20040718,021805,448941,32.540000,-119.711833,17.106,33.513,NaN,NaN
20040718,021835,448971,32.540667,-119.710333,17.117,33.513,NaN,NaN
20040718,021905,449001,32.541333,-119.709000,17.127,33.513,NaN,NaN
20040718,021935,449031,32.542000,-119.707500,17.131,33.514,NaN,NaN
20040718,022005,449061,32.542667,-119.706000,17.125,33.513,NaN,NaN
20040718,022035,449091,32.543167,-119.704667,17.112,33.514,NaN,NaN
20040718,022105,449121,32.544000,-119.703333,17.101,33.514,NaN,NaN
20040718,022135,449151,32.544667,-119.701833,17.109,33.513,NaN,NaN
20040718,022205,449181,32.545167,-119.700500,17.117,33.514,NaN,NaN
20040718,022235,449211,32.545833,-119.699000,17.096,33.515,NaN,NaN
20040718,022305,449241,32.546500,-119.697667,17.079,33.516,NaN,NaN
20040718,022335,449271,32.547167,-119.696333,17.058,33.516,NaN,NaN
20040718,022405,449301,32.547833,-119.694833,17.043,33.518,NaN,NaN
20040718,022435,449331,32.548500,-119.693500,17.045,33.518,NaN,NaN
20040718,022505,449361,32.549167,-119.692000,17.047,33.518,NaN,NaN
20040718,022535,449391,32.549833,-119.690667,17.051,33.518,NaN,NaN
20040718,022605,449421,32.550500,-119.689167,17.091,33.519,NaN,NaN
20040718,022635,449451,32.551167,-119.687833,17.135,33.521,NaN,NaN
20040718,022705,449481,32.551833,-119.686333,17.153,33.522,NaN,NaN
20040718,022735,449511,32.552500,-119.685000,17.156,33.526,NaN,NaN
20040718,022805,449541,32.553167,-119.683667,17.179,33.523,NaN,NaN
20040718,022835,449571,32.553833,-119.682167,17.201,33.526,NaN,NaN
20040718,022905,449601,32.554333,-119.680833,17.200,33.527,NaN,NaN
20040718,022935,449631,32.555000,-119.679333,17.191,33.527,NaN,NaN
20040718,023005,449661,32.555667,-119.678000,17.192,33.528,NaN,NaN
20040718,023035,449691,32.556500,-119.676500,17.191,33.529,NaN,NaN
20040718,023105,449721,32.557167,-119.675167,17.215,33.529,NaN,NaN
20040718,023135,449751,32.557833,-119.673667,17.255,33.531,NaN,NaN
20040718,023205,449781,32.558500,-119.672333,17.334,33.532,NaN,NaN
20040718,023235,449811,32.559167,-119.670833,17.456,33.535,NaN,NaN
20040718,023305,449841,32.559833,-119.669500,17.548,33.538,NaN,NaN
20040718,023335,449871,32.560500,-119.668000,17.521,33.544,NaN,NaN
20040718,023405,449901,32.561167,-119.666667,17.446,33.543,NaN,NaN
20040718,023435,449931,32.561833,-119.665167,17.408,33.543,NaN,NaN
20040718,023505,449961,32.562500,-119.663833,17.351,33.546,NaN,NaN
20040718,023535,449991,32.563333,-119.662333,17.289,33.545,NaN,NaN
20040718,023605,450021,32.564000,-119.661000,17.239,33.543,NaN,NaN
20040718,023635,450051,32.564667,-119.659500,17.207,33.542,NaN,NaN
20040718,023705,450081,32.565333,-119.658167,17.169,33.543,NaN,NaN
20040718,023735,450111,32.566000,-119.656667,17.143,33.542,NaN,NaN
20040718,023805,450141,32.566667,-119.655333,17.150,33.540,NaN,NaN
20040718,023835,450171,32.567500,-119.653833,17.133,33.539,NaN,NaN
20040718,023905,450201,32.568167,-119.652500,17.135,33.537,NaN,NaN
20040718,023935,450231,32.568833,-119.651000,17.174,33.535,NaN,NaN
20040718,024005,450261,32.569500,-119.649667,17.266,33.527,NaN,NaN
20040718,024035,450291,32.570167,-119.648167,17.369,33.528,NaN,NaN
20040718,024105,450321,32.570833,-119.646833,17.409,33.526,NaN,NaN
20040718,024135,450351,32.571500,-119.645333,17.406,33.522,NaN,NaN
20040718,024205,450381,32.572167,-119.643833,17.399,33.520,NaN,NaN
20040718,024235,450411,32.572833,-119.642500,17.422,33.517,NaN,NaN
20040718,024305,450441,32.573500,-119.641167,17.492,33.512,NaN,NaN
20040718,024335,450471,32.574167,-119.639667,17.561,33.506,NaN,NaN
20040718,024405,450501,32.574833,-119.638333,17.585,33.501,NaN,NaN
20040718,024435,450531,32.575500,-119.636833,17.598,33.496,NaN,NaN
20040718,024505,450561,32.576167,-119.635500,17.612,33.493,NaN,NaN
20040718,024535,450591,32.576833,-119.634167,17.625,33.491,NaN,NaN
20040718,024605,450621,32.577500,-119.632667,17.634,33.488,NaN,NaN
20040718,024635,450651,32.578167,-119.631333,17.659,33.484,NaN,NaN
20040718,024705,450681,32.578833,-119.630000,17.665,33.479,NaN,NaN
20040718,024735,450711,32.579667,-119.628667,17.686,33.474,NaN,NaN
20040718,024805,450741,32.580333,-119.627333,17.719,33.470,NaN,NaN
20040718,024835,450771,32.581000,-119.625833,17.737,33.465,NaN,NaN
20040718,024905,450801,32.581667,-119.624500,17.758,33.461,NaN,NaN
20040718,024935,450831,32.582333,-119.623167,17.774,33.458,NaN,NaN
20040718,025005,450861,32.583000,-119.621833,17.796,33.451,NaN,NaN
20040718,025035,450891,32.583833,-119.620500,17.794,33.448,NaN,NaN
20040718,025105,450921,32.584500,-119.619167,17.789,33.444,NaN,NaN
20040718,025135,450951,32.585167,-119.617833,17.782,33.442,NaN,NaN
20040718,025205,450981,32.585833,-119.616500,17.778,33.439,NaN,NaN
20040718,025235,451011,32.586500,-119.615167,17.764,33.438,NaN,NaN
20040718,025305,451041,32.587167,-119.613667,17.754,33.437,NaN,NaN
20040718,025335,451071,32.588000,-119.612333,17.746,33.435,NaN,NaN
20040718,025405,451101,32.588667,-119.611000,17.755,33.434,NaN,NaN
20040718,025435,451131,32.589333,-119.609667,17.765,33.434,NaN,NaN
20040718,025505,451161,32.590167,-119.608333,17.758,33.433,NaN,NaN
20040718,025535,451191,32.590833,-119.607000,17.756,33.432,NaN,NaN